Regional Weather Roundup
Issued by NWS

Home | Current Version | Previous Version | Text Only | Print | Product List | Glossary On
Versions: 1 2 3 4 5 6 7 8 9 10 11 12 13 14 15 16 17 18 19 20 21 22 23 24 25 26 27 28 29 30 31 32 33 34 35 36 37 38 39 40 41 42 43 44 45 46 47 48 49 50
195
ASUS44 KFWD 271015
RWRTX
NORTH TEXAS HOURLY WEATHER ROUNDUP
NATIONAL WEATHER SERVICE FORT WORTH TX
500 AM CDT WED JUL 27 2016

NOTE: "FAIR" INDICATES FEW OR NO CLOUDS BELOW 12,000 FEET WITH NO
SIGNIFICANT WEATHER AND/OR OBSTRUCTIONS TO VISIBILITY.

TXZ118-119-271100-
DALLAS/FORT WORTH METROPLEX

CITY           SKY/WX    TMP DP  RH WIND       PRES   REMARKS
DFW AIRPORT    MOCLDY    80  73  79 S5        29.91R
DALLAS LOVE    MOCLDY    81  73  76 S7        29.91S
FTW MEACHAM    CLEAR     82  72  71 S3        29.91R
DAL-EXECUTIVE  CLEAR     77  72  84 S3        29.92R
FTW-ALLIANCE   MOCLDY    78  72  81 SE5       29.91R
FTW-NAS-JRB    CLEAR     81  72  74 S5        29.92R
FTW-SPINKS     CLEAR     76  74  91 CALM      29.93S
ARLINGTON      PTCLDY    78  73  84 SE5       29.92S
GRAND PRAIRIE  CLEAR     80  71  75 S5        29.93S
ADDISON        CLEAR     82  74  78 S5        29.93S
MESQUITE       CLOUDY    75  75  98 CALM      29.92R
LANCASTER      CLEAR     77  72  85 CALM      29.93R
$$

TXZ091>094-102>105-117-120-121-131>134-271100-
NORTH CENTRAL TEXAS

CITY           SKY/WX    TMP DP  RH WIND       PRES   REMARKS
SHRMAN/DENISON CLOUDY    76  76 100 E3        29.94S
GAINESVILLE    CLOUDY    74  72  92 NE3       29.95S
BOWIE          PTCLDY    75  72  91 CALM      29.94R
BRIDGEPORT     CLEAR     74  74 100 CALM      29.94S
DECATUR        CLEAR     74  73  93 E3        29.93S
DENTON         PTCLDY    76  73  91 CALM      29.92R
MCKINNEY       PTCLDY    77  74  90 CALM      29.92S
GREENVILLE     PTCLDY    77  73  88 CALM      29.93R
ROCKWALL       PTCLDY    77  74  91 S3        29.91S
TERRELL        CLOUDY    76  73  91 CALM      29.93R
WAXAHACHIE     CLEAR     75  75  99 CALM      29.94R
CLEBURNE       CLEAR     77  75  94 SE3       29.94S
GRANBURY       CLEAR     81  71  71 CALM      29.93R
$$

TXZ083>090-098>101-113>116-127>130-139>142-154-155-271100-
WESTERN NORTH TEXAS

CITY           SKY/WX    TMP DP  RH WIND       PRES   REMARKS
WICHITA FALLS  CLEAR     75  71  87 E7        29.93R
WF-KICKAPOO    CLEAR     76  71  84 CALM      29.94R
VERNON         CLEAR     76  69  79 CALM      29.95S
ABILENE        CLEAR     77  68  73 SW5       29.97R
ABILENE-DYESS  CLEAR     77  68  73 S3        29.95R
CISCO          CLEAR     75  70  83 CALM      29.97S
BRECKENRIDGE   CLEAR     78  68  72 S5        29.94R
GRAHAM         CLEAR     76  72  87 CALM      29.92S
MINERAL WELLS  CLEAR     76  72  87 SE8       29.91S
STEPHENVILLE   CLEAR     75  69  81 CALM      29.97S
COMANCHE       CLEAR     75  71  86 CALM      29.96R
BROWNWOOD      MOCLDY    73  70  88 CALM      29.96S
COLEMAN        CLEAR     74  67  78 CALM      29.96S
$$

TXZ143>147-156>162-174-175-271100-
CENTRAL TEXAS

CITY           SKY/WX    TMP DP  RH WIND       PRES   REMARKS
WACO           CLEAR     77  71  82 SW6       29.93R
WACO-MCGREGOR  CLEAR     75  72  90 S6        29.93F
HILLSBORO      CLEAR     74  71  89 SE5       29.93S
CORSICANA      CLEAR     78  73  84 S6        29.93F
MEXIA          CLEAR     74  74  98 SE5       29.93S
HEARNE         CLEAR     74  73  95 CALM      29.94R
CAMERON        CLEAR     75  73  93 CALM      29.93S
TEMPLE         CLEAR     74  73  97 S3        29.94R
KILLEEN        CLEAR     73  71  92 S5        29.94R
KILLEEN-SKYLRK   N/A     74  71  91 S5        29.94S
FORT HOOD      CLEAR     74  70  88 SW5       29.92R
GATESVILLE     CLEAR     73  72  94 CALM      29.96R
HAMILTON       CLEAR     73  73 100 S5        29.95S
LAMPASAS       CLEAR     73  71  94 CALM      29.95R
$$

TXZ095>097-106>112-122>126-135>138-148>153-164>167-271100-
EAST TEXAS

CITY           SKY/WX    TMP DP  RH WIND       PRES   REMARKS
PARIS          CLEAR     75  64  69 CALM      29.93R
SULPHUR SPRNGS CLEAR     76  74  93 SW3       29.95R
MOUNT PLEASANT CLEAR     75  74  98 CALM      29.94R
GILMER         CLEAR     76  73  88 CALM      29.93S
MINEOLA        CLEAR     75  73  94 CALM      29.93S
TYLER          CLEAR     77  73  87 S5        29.93S
LONGVIEW       CLEAR     77  74  90 W3        29.92S
MARSHALL       CLEAR     73  70  92 CALM      29.94S
ATHENS         CLEAR     72  72 100 CALM      29.92S FOG
PALESTINE      CLEAR     75  74  98 CALM      29.95S
JACKSONVILLE     N/A     75  74  97 CALM      29.96S
HENDERSON      CLEAR     75  74  98 CALM      29.94S
CENTER         SUNNY     78  76  95 CALM      29.94R
NACOGDOCHES    CLEAR    N/A N/A N/A CALM      29.93R
LUFKIN         CLEAR     75  74  96 SW5       29.93S
$$

SUPPLEMENTAL OBSERVATIONS (CENTRAL)

CITY           SKY/WX    TMP DP  RH WIND       PRES   REMARKS
DENISON DAM      N/A     75  72  88 E3          N/A
CADDO GRASSLND   N/A     73  70  88 CALM        N/A
PAT MAYSE LAKE   N/A     73  72  94 NW2         N/A
GREENVILLE       N/A     75  72  88 CALM        N/A
CEDAR HILL       N/A     77  73  88 S2          N/A
ATHENS           N/A     75  72  88 S3          N/A
LAKE LIMESTONE   N/A     73  72  94 E1          N/A
MCGREGOR         N/A     73  72  94 S2          N/A
TEMPLE           N/A     73  70  88 S2          N/A
$$

SUPPLEMENTAL OBSERVATIONS (WEST)

CITY           SKY/WX    TMP DP  RH WIND       PRES   REMARKS
MILLERS CREEK    N/A     79  70  73 S7          N/A
POSSUM KINGDOM   N/A     79  70  73 S5          N/A
LBJ GRASSLAND    N/A     75  72  88 CALM        N/A
GRANBURY         N/A     81  70  69 S3          N/A
COMANCHE         N/A     75  70  83 W1          N/A
HAMBY            N/A     77  66  69 S3          N/A
IVIE RESERVOIR   N/A     73  68  83 SE1         N/A
COLORADO BEND    N/A     73  70  88 W2          N/A
$$

SUPPLEMENTAL OBSERVATIONS (EAST)

CITY           SKY/WX    TMP DP  RH WIND       PRES   REMARKS
CLARKSVILLE      N/A     77  72  83 SE5         N/A
TEXARKANA        N/A     73  72  94 CALM        N/A
LINDEN           N/A     75  70  83 CALM        N/A
GILMER           N/A     75  70  83 CALM        N/A
HENDERSON        N/A     75  72  88 CALM        N/A
LUFKIN           N/A     75  73  94 MISG        N/A
S SABINE NF      N/A     73  70  88 SE1         N/A
$$

SUPPLEMENTAL OBSERVATIONS ARE A COLLECTION OF AUTOMATED INSTRUMENTS
THAT ARE MAINTAINED BY A VARIETY OF FEDERAL AND STATE AGENCIES.
CERTAIN ELEMENTS...SUCH AS HUMIDITY VALUES AND SUSTAINED WIND
SPEEDS...MAY BE APPROXIMATED.





USA.gov is the U.S. government's official web portal to all federal, state and local government web resources and services.